London-Corbin, KY

12:21 AM EST on November 12, 2019 (GMT -0500)
London-Corbin / McKee

Weather History for KLOZ - October, 2019

Change the Weather History Date:

Monday, October 21, 2019

  Actual Average Record
Temperature  
Mean Temperature 62 °F 56 °F  
Max Temperature 74 °F 68 °F 83 °F (1979)
Min Temperature 49 °F 44 °F 26 °F (1974)
Degree Days  
Heating Degree Days 3 10  
Month to date heating degree days 121 148  
Since 1 July heating degree days 121 195  
Cooling Degree Days 0 0  
Month to date cooling degree days 67 17  
Year to date cooling degree days 1484 1184  
Growing Degree Days 10 (Base 50)    
Moisture  
Dew Point 54 °F    
Average Humidity 79    
Maximum Humidity 100    
Minimum Humidity 57    
Precipitation  
Precipitation 0.48 in 0.09 in 0.67 in (1985)
Month to date precipitation 5.02 1.97  
Sea Level Pressure  
Sea Level Pressure 29.91 in    
Wind  
Wind Speed 8 mph (South)    
Max Wind Speed 21 mph    
Max Gust Speed 32 mph    
Visibility 6 miles    
Events Fog , Rain    
T = Trace of Precipitation, MM = Missing Value Source: NWS Daily Summary

Daily Weather History Graph

Daily Weather History Graph

Search for Another Location

Airport or City:

Astronomy

Oct. 21, 2019 Rise Set
Actual Time 7:49 AM EDT 6:51 PM EDT
Civil Twilight 7:23 AM EDT 7:18 PM EDT
Nautical Twilight 6:52 AM EDT 7:48 PM EDT
Astronomical Twilight 6:22 AM EDT 8:18 PM EDT
Moon 12:06 AM EDT (10/21) 3:01 PM EDT (10/21)
Length of Visible Light 11h 55m
Length of Day
11h 02m
Waning Gibbous, 48% of the Moon is Illuminated
Oct 21
Waning Gibbous
Oct 27
New
Nov 4
First Quarter
Nov 12
Full
Nov 19
Last Quarter

Hourly Weather History & Observations

Time (EDT) Temp. Dew Point Humidity Pressure Visibility Wind Dir Wind Speed Gust Speed Precip Events Conditions
12:28 AM 51.1 °F 50.0 °F 96% 29.98 in 2.5 mi Calm Calm - N/A   Mostly Cloudy
12:35 AM 51.1 °F 50.0 °F 96% 29.99 in 4.0 mi Calm Calm - N/A   Mostly Cloudy
12:40 AM 51.1 °F 50.0 °F 96% 29.99 in 2.5 mi Calm Calm - N/A   Scattered Clouds
12:46 AM 51.1 °F 50.0 °F 96% 29.99 in 1.8 mi Calm Calm - N/A   Mostly Cloudy
12:53 AM 50.0 °F 50.0 °F 100% 29.98 in 2.0 mi Calm Calm - N/A   Mostly Cloudy
1:42 AM 50.0 °F 48.9 °F 96% 29.97 in 1.2 mi Calm Calm - N/A   Scattered Clouds
1:49 AM 50.0 °F 48.2 °F 94% 29.98 in 3.0 mi Calm Calm - N/A   Scattered Clouds
1:53 AM 50.0 °F 48.9 °F 96% 29.96 in 8.0 mi Calm Calm - N/A   Partly Cloudy
2:15 AM 48.9 °F 48.9 °F 100% 29.97 in 1.8 mi Calm Calm - N/A   Mostly Cloudy
2:25 AM 48.9 °F 48.9 °F 100% 29.97 in 0.5 mi Calm Calm - N/A Fog Fog
2:53 AM 50.0 °F 48.9 °F 96% 29.96 in 1.0 mi Calm Calm - N/A   Mist
3:10 AM 50.0 °F 48.9 °F 96% 29.95 in 3.0 mi Calm Calm - N/A   Mostly Cloudy
3:16 AM 50.0 °F 48.9 °F 96% 29.95 in 2.5 mi Calm Calm - N/A   Scattered Clouds
3:40 AM 51.1 °F 50.0 °F 96% 29.94 in 1.2 mi Calm Calm - N/A   Partly Cloudy
3:48 AM 50.0 °F 48.2 °F 94% 29.94 in 1.0 mi Calm Calm - N/A   Mist
3:53 AM 50.0 °F 48.9 °F 96% 29.93 in 1.0 mi Calm Calm - N/A   Mist
4:20 AM 51.1 °F 50.0 °F 96% 29.92 in 2.0 mi Calm Calm - N/A   Clear
4:28 AM 51.1 °F 51.1 °F 100% 29.93 in 9.0 mi Calm Calm - N/A   Clear
4:53 AM 53.1 °F 53.1 °F 100% 29.92 in 10.0 mi Calm Calm - N/A   Clear
5:11 AM 50.0 °F 48.9 °F 96% 29.94 in 1.8 mi Calm Calm - N/A   Clear
5:16 AM 51.1 °F 48.9 °F 92% 29.93 in 3.0 mi Calm Calm - N/A   Clear
5:53 AM 52.0 °F 52.0 °F 100% 29.92 in 10.0 mi South 3.5 mph - N/A   Clear
6:53 AM 53.1 °F 53.1 °F 100% 29.91 in 10.0 mi SE 4.6 mph - N/A   Clear
7:53 AM 55.0 °F 54.0 °F 96% 29.91 in 10.0 mi SE 4.6 mph - N/A   Clear
8:53 AM 57.0 °F 55.0 °F 93% 29.91 in 10.0 mi SE 3.5 mph - N/A   Clear
9:53 AM 60.1 °F 55.9 °F 86% 29.90 in 10.0 mi SSE 10.4 mph 16.1 mph N/A   Scattered Clouds
10:53 AM 64.0 °F 57.0 °F 78% 29.88 in 10.0 mi SSE 12.7 mph 18.4 mph N/A   Partly Cloudy
11:53 AM 69.1 °F 57.0 °F 65% 29.88 in 10.0 mi South 17.3 mph 26.5 mph N/A   Clear
12:53 PM 72.0 °F 57.0 °F 59% 29.87 in 10.0 mi South 13.8 mph 24.2 mph N/A   Partly Cloudy
1:53 PM 73.9 °F 57.0 °F 55% 29.86 in 10.0 mi SSW 18.4 mph 26.5 mph N/A   Mostly Cloudy
2:53 PM 73.0 °F 57.0 °F 57% 29.85 in 10.0 mi South 12.7 mph - N/A   Mostly Cloudy
3:53 PM 73.0 °F 57.9 °F 59% 29.84 in 10.0 mi South 8.1 mph - N/A   Mostly Cloudy
4:53 PM 72.0 °F 57.9 °F 61% 29.84 in 10.0 mi South 10.4 mph - N/A   Scattered Clouds
5:53 PM 72.0 °F 55.9 °F 57% 29.84 in 10.0 mi South 11.5 mph 18.4 mph N/A   Overcast
6:53 PM 69.1 °F 57.9 °F 68% 29.85 in 10.0 mi SSW 10.4 mph - 0.00 in Rain Light Rain
7:53 PM 63.0 °F 61.0 °F 93% 29.90 in 3.0 mi SSW 9.2 mph - 0.13 in Rain Heavy Rain
8:53 PM 61.0 °F 60.1 °F 97% 29.88 in 8.0 mi SSE 5.8 mph - 0.13 in Rain Light Rain
9:53 PM 61.0 °F 60.1 °F 97% 29.86 in 10.0 mi Variable 3.5 mph - 0.06 in Rain Light Rain
10:53 PM 62.1 °F 60.1 °F 93% 29.84 in 10.0 mi South 4.6 mph - 0.03 in Rain Light Rain
11:21 PM 62.1 °F 61.0 °F 96% 29.87 in 2.5 mi SW 4.6 mph - 0.04 in Rain Heavy Rain
11:29 PM 62.1 °F 61.0 °F 96% 29.86 in 2.5 mi South 4.6 mph - 0.07 in Rain Light Rain
11:36 PM 62.1 °F 61.0 °F 96% 29.86 in 9.0 mi South 5.8 mph - 0.07 in Rain Light Rain
11:53 PM 63.0 °F 61.0 °F 93% 29.85 in 7.0 mi WSW 6.9 mph - 0.09 in Rain Light Rain